Weather Roundup
Issued by NWS Springfield, MO

Home | Current Version | Previous Version | Graphics & Text | Print | Product List | Glossary On
Versions: 1 2 3 4 5 6 7 8 9 10 11 12 13 14 15 16 17 18 19 20 21 22 23 24 25 26 27 28 29 30 31 32 33 34 35 36 37 38 39 40 41 42 43 44 45 46 47 48 49 50
000
NZUS99 KSGF 260907
HRRSGF

HOURLY WEATHER
NATIONAL WEATHER SERVICE SPRINGFIELD MO
400 AM CDT THU MAY 26 2016

......SGF CWA......

CITY           SKY/WX    TMP DP  RH WIND       PRES   REMARKS
SPRINGFIELD    CLOUDY    72  69  90 S10       29.92S
JOPLIN         CLOUDY    75  71  87 S13       29.90S
WEST PLAINS    CLOUDY    72  69  90 S8        29.99F
ROLLA          CLOUDY    72  69  90 S10       29.93F

......SURROUNDING SGF CWA......

CITY           SKY/WX    TMP DP  RH WIND       PRES   REMARKS
CHANUTE        CLEAR     74  71  91 S8        29.84S
PARSONS        CLOUDY    76  74  93 S10       29.86F
COFFEYVILLE    CLOUDY    77  73  87 S10       29.86F
EMPORIA        CLOUDY    74  71  91 W3        29.86R
GROVE OK       PTCLDY    73  72  94 S10       29.89F
ROGERS AR        N/A     73  71  93 S12       29.93F
SILOAM SPRINGS PTCLDY    73  64  73 S10       29.93F
HARRISON AR    CLEAR     70  68  93 SE6       29.96F FOG
NEAR YELLVILLE CLEAR    N/A N/A N/A CALM      29.92F

......KANSAS AND MISSOURI......

CITY           SKY/WX    TMP DP  RH WIND       PRES   REMARKS
KANSAS CTY INT HAIL      68  59  73 NW18G28   29.93R
DOWNTOWN KC    CLOUDY    73  56  54 S8        29.84R
COLUMBIA       PTCLDY    71  68  90 S12       29.90F
SEDALIA        TSTM      66  61  84 NW15G30   29.98R
ST JOSEPH      CLOUDY    67  63  87 CALM      29.86R
ST LOUIS       CLOUDY    73  67  81 S7        29.93F
SPIRIT OF STL  CLOUDY    71  69  93 S5        29.91F
KIRKSVILLE     CLOUDY    71  67  87 S6        29.88R
WICHITA        CLOUDY    74  69  85 S5        29.82S
TOPEKA         CLOUDY    69  65  86 N7        29.85R
OLATHE         CLOUDY    63  61  93 S9        29.87R

......TENNESSEE......

CITY           SKY/WX    TMP DP  RH WIND       PRES   REMARKS
MEMPHIS        MOCLDY    73  65  75 S7        30.03S
NASHVILLE      CLOUDY    65  62  90 S5        30.11S

......ARKANSAS.......

CITY           SKY/WX    TMP DP  RH WIND       PRES   REMARKS
FAYETTEVILLE   PTCLDY    74  73  97 S12       29.94F
FT SMITH       MOCLDY    74  71  91 CALM      29.92F
LITTLE ROCK    MOCLDY    78  73  84 SW13      29.98F

......OKLAHOMA.......

CITY           SKY/WX    TMP DP  RH WIND       PRES   REMARKS
TULSA          MOCLDY    78  74  87 S15       29.85F
PONCA CITY     CLOUDY    77  73  87 S12G20    29.82F
MCALESTER      MOCLDY    78  73  84 S9        29.91F
OKLAHOMA CITY  CLOUDY    77  73  87 S15       29.87R

......IOWA............

CITY           SKY/WX    TMP DP  RH WIND       PRES   REMARKS
DES MOINES     TSTM      65  58  78 W12       29.93R
QUAD CITIES    MOCLDY    73  63  70 S7        29.84F

......ILLINOIS........

CITY           SKY/WX    TMP DP  RH WIND       PRES   REMARKS
QUINCY         CLOUDY    71  65  81 S10       29.86F
CHICAGO        CLEAR     64  63  96 S7        29.89F



USA.gov is the U.S. government's official web portal to all federal, state and local government web resources and services.